Weather in Olory

Russia / Mari El Republic     56°44′30″N   49°33′21″E
temp.,
°C
wind,
m/s
gust,
m/s
humid.,
%
clouds,
%
prec.,
mm/h
press.,
hPa
HPBL,
m
28 february, sun
sun2800:00−18n499780 0.0 1006179
03:00−20n499874 0.0 1008176
06:00−20n489878 0.0 1009185
09:00−19n479572 0.0 1010247
12:00−16n489256 0.0 1010353
15:00−14n589074 0.0 1012488
18:00−18n379684 0.0 1014117
21:00−20n349851 0.0 101667
1 march, mon
mon100:00−21nnw349814 0.0 101852
03:00−22nnw339817 0.0 101941
06:00−23nnw33989 0.0 102129
09:00−20nnw12955 0.0 102194
12:00−15wnw23879 0.0 1020266
15:00−12wsw248924 0.0 1019347
18:00−14ssw369776 0.0 1017116
21:00−14ssw499688 0.0 1015243
2 march, tue
tue200:00−12ssw61195100 0.1 1010308
03:00−10ssw61293100 0.5 1006436
06:00−7ssw71394100 0.8 1001509
09:00−4ssw61195100 1.5 999476
12:00−1ssw5998100 0.8 997471
15:000w4899100 2.1 996436
18:000wnw3699100 0.9 996340
21:00−2nnw51193100 2.1 997430
3 march, wed
wed300:00−5nnw499399 0.0 997214
03:00−7nw369695 0.0 999140
06:00−8nw489698 0.1 1000177
09:00−7nw489588 0.1 1001267
12:00−4nw599396 0.1 1002544
15:00−3nw6109398 0.3 1004778
18:00−6nnw5128995 0.3 1005501
21:00−9nw5139360 0.3 1008300
4 march, thu
thu400:00−11wnw4109438 0.0 1008223
03:00−13w489643 0.0 1009144
06:00−12wsw379682 0.0 1009175
09:00−9wsw499489 0.1 1007313
12:00−5sw61289100 0.0 1004569
15:00−3sw81593100 0.4 1001939
18:00−2sw81595100 0.7 998845
21:000wsw81595100 1.4 9951049